Погода в Курдамире

Погода в Курдамире : погода сейчас, прогноз погоды и архив. Всё, что Вы хотите узнать о погоде в Курдамире!

Поиск расширенной информации на нашем сайте:

Другие новости

Новости СМИ2

Главная страница сайта

Новости сайта

02.10.2013

Напоминаем, что на нашем новом сайте вы можете получить высокодетализированные прогнозы погоды по пунктам России, СНГ и мира (включающие важные для авиации метеовеличины, такие как направление и скорость ветра, видимость, явления погоды, количество и форма облачности, нижняя и верхняя граница облачности), а также ознакомиться с разнообразными материалами по авиационной метеорологии и подборкой полезных ссылок на эту тему.

Сайт Метеоцентр.Азия посвящён разработке технологий оптимизации авиаметеорологического обслуживания, включая проектирование и перспективное создание нескольких автоматизированных авиаметеорологических систем:
- система выпуска высокодетальных прогностических карт явлений погоды для нижнего воздушного пространства по России и ближнему зарубежью;
- система верификации прогнозов TAF (выпускаемых синоптиками официальных АМСГ РФ и ближнего зарубежья) и AUTOTAF (выпускаемых сайтом Метеоцентр.Азия) - выявление ошибок, онлайн-сопоставление с фактической погодой METAR, автоматическое внесение коррективов в прогнозы при резком отклонении фактической погоды от прогноза, подсчёт оправдываемости прогнозов по элементам и в целом;
- система обработки, анализа и отображения авиаметеорологической информации для применения провайдерами метеорологической информации.


Погода в Курдамире - сегодня

Время (UTC), дата Ветер
(°,м/с) 
Видим.   Явления Облачность Т
(°С)
Тd
(°С)
f(%) Тe
(°С)
Pmin
(гПа)
dP
(гПа)
Po
(мм)
O2
(г/м3)
Тmin Tmax R s Состояние
почвы
15 24.02.17 250 (З) 20000 м    8/0 средняя, верхняя 
[Ac lent|Ci fib]
+16 +0.9 36 +16  1019.3  2.7  764  291           
18 24.02.17 190 (Ю) 20000 м    ясно 
+8.4 +2.7 67 +7  1021.9  2.6  766  299    +19.6       
21 24.02.17 070 (В) 52  20000 м    ясно 
+6.2 +1.7 73 -1  1023.2  1.3  767  302           
00 25.02.17 100 (В) 20000 м    ясно 
+5 +1.7 79 +5  1022.8  -0.4  767  303           
03 25.02.17 310 (СЗ) 20000 м    ясно 
+1.6 -0.5 86 +2  1022.6  -0.2  767  307           
09 25.02.17 280 (З) 20000 м    ясно 
+14.1 -3.7 29 +14  1021.5  -2  766  294           
12 25.02.17 270 (З) 20000 м    ясно 
+19.2 +0.2 28 +20  1018  -3.5  763  287           
15 25.02.17 220 (ЮЗ) 20000 м    ясно 
+16.1 -1.2 31 +17  1016.8  -1.2  762  290           
21 25.02.17 150 (ЮВ) 20000 м    ясно 
+7 -2.8 50 +7  1015.8  -0.8  761  299           
00 26.02.17 290 (З) 20000 м    ясно 
+4.3 +1.5 82 +5  1014.1  -1.7  760  301           
03 26.02.17 290 (З) 20000 м    ясно 
+3.8 -2.5 63 +3  1013.6  -0.5  760  302           
06 26.02.17 290 (З) 20000 м    3/0 верхняя 
[Ci fib]
+9.5 -1.5 46 +11  1015.3  1.7  761  297           
09 26.02.17 340 (С) 20000 м    8/0 средняя, верхняя 
[Ac trans|Ci fib]
+18.5 +3 36 +19  1014.6  -0.7  761  287           
12 26.02.17 290 (З) 20000 м    10/10 600 м 
[Sc]
+18.2 +0.3 30 +18  1015.2  -0.5  761  287           
15 26.02.17 170 (Ю) 20000 м    8/5 600 м средняя 
[Sc|Ac trans]
+13 +1.6 46 +12  1018.5  3.3  764  293           
21 26.02.17 240 (ЮЗ) 20000 м    8/5 600 м средняя 
[Sc|Ac trans]
+4.3 -5.4 49 +4  1028.3  3.6  771  306           
00 27.02.17 180 (Ю) 20000 м    10/10 600 м 
[Sc]
+3.1 -3.7 61 +3  1029.4  1.1  772  308           
03 27.02.17 060 (СВ) 20000 м    10/10 600 м 
[Sc]
+2.8 -4.2 60 +4  1030.3  0.9  772  309           
09 27.02.17 270 (З) 20000 м    8/0 средняя, верхняя 
[Ac trans|Ci fib]
+8.1 -5.4 38 +8  1028.4  -2.1  771  302           
12 27.02.17 210 (ЮЗ) 20000 м    9/0 средняя, верхняя 
[Ac trans|Ci fib]
+9.3 -2.9 42 +9  1024.7  -3.7  768  300           
18 27.02.17 200 (Ю) 20000 м    ясно 
+4.8 -0.2 70 +4  1023.6  767  304    +9.6       
21 27.02.17 тихо ()   20000 м    ясно 
+2.6 -0.7 79 +3  1023.1  -0.5  767  306           
00 28.02.17 070 (В) 20000 м    ясно 
+1.1 -2.1 79 1022.4  -0.7  766  308           
03 28.02.17 090 (В) 20000 м    ясно 
+0.9 -1.7 83 1022.9  0.5  767  308           
09 28.02.17 100 (В) 20000 м    3/0 верхняя 
[Ci ing]
+10.8 +0.2 48 +11  1025.1  -0.2  768  298           
Время (UTC), дата Ветер
(°,м/с) 
Видим.   Явления Облачность Т
(°С)
Тd
(°С)
f(%) Тe
(°С)
Pmin
(гПа)
dP
(гПа)
Po
(мм)
O2
(г/м3)
Тmin Tmax R s Состояние
почвы

Для получения пояснительной информации подведите курсор к названию столбца.

ПОГОДА в Курдамире - архив

Всё, что Вы хотите узнать о погоде в Курдамире - удобно и подробно!

Выберите нужную дату (начиная с 1 января 2015* года) и нажмите кнопку "Найти".
Будут отображены архивные сводки погоды по пункту Курдамир, начиная с указанной даты.


Отображать данные в формате CSV (для использования в таблицах Excel)


Внимание! Наш архив погоды предназначен исключительно для личного некоммерческого использования в познавательных целях. Если Вам необходимы официальные справки о состоянии погоды (для производственных, юридических, коммерческих и т.п. целей), обращайтесь в органы Росгидромета.

*Примечание: данная дата относится к архиву по метеостанциям СССР (Россия, СНГ, Балтия).
Архив по метеостанциям Зарубежной Европы и Азии (кроме Китая) хранится 10 дней, по другим регионам земного шара (Китай, Африка, Америка, Австралия, Океания) - 1 день.

Курдамир - район местоположения метеостанции


Название, широта, долгота, высота метеостанции:
Курдамир 40.3°ш. 48.2°д. 4 м над ур. моря [Азербайджан]

Дополнительная информация

В oтличие oт бoльшинства пoгoдных сайтoв мы публикуем пoдрoбную метеoинфoрмацию в детальнoм прoфессиoнальнoм фoрмате.

Характеристики температуры и влажнoсти вoздуха измеряются на высoте 2 м в тени вдали oт зданий и деревьев.
Скoрoсть ветра измеряется на высoте 10 м (на урoвне рoста челoвека скoрoсть ветра ниже в 1.5-2 раза). Если метеoстанция нахoдится в гoрoде или в лесу, тo скoрoсть ветра занижена на 2-4 м/с пo сравнению с oткрытым местoм. Скoрoсть ветра над акватoриями крупных рек и oзёр, а также на вершинах хoлмoв на 2-5 м/с выше, чем в oбычных услoвиях.
Атмoсфернoе давление в разных тoчках местнoсти мoжет значительнo oтличаться oт давления на метеoстанции, в зависимoсти oт услoвий рельефа (при пoдъёме на 10 м давление пoнижается примернo на 1 мм рт.ст.).